Cairo, IL

2:42 AM CST on December 06, 2019 (GMT -0600)
Cairo Regional

Weather History for KCIR - October, 2019

Change the Weather History Date:

Wednesday, October 9, 2019

  Actual Average Record
Temperature  
Mean Temperature 61 °F -  
Max Temperature 79 °F 73 °F 88 °F (1980)
Min Temperature 43 °F 53 °F 36 °F (1988)
Degree Days  
Heating Degree Days 4    
Growing Degree Days 11 (Base 50)    
Moisture  
Dew Point 52 °F    
Average Humidity 76    
Maximum Humidity 100    
Minimum Humidity 42    
Precipitation  
Precipitation 0.00 in - - ()
Sea Level Pressure  
Sea Level Pressure 30.06 in    
Wind  
Wind Speed 2 mph ()    
Max Wind Speed 12 mph    
Max Gust Speed -    
Visibility 9.7 miles    
Events      
Averages and records for this station are not official NWS values.
T = Trace of Precipitation, MM = Missing Value Source: Averaged Metar Reports

Daily Weather History Graph

Daily Weather History Graph

Search for Another Location

Airport or City:

Astronomy

Oct. 09, 2019 Rise Set
Actual Time 6:59 AM CDT 6:28 PM CDT
Civil Twilight 6:32 AM CDT 6:54 PM CDT
Nautical Twilight 6:02 AM CDT 7:24 PM CDT
Astronomical Twilight 5:32 AM CDT 7:54 PM CDT
Moon 4:53 PM CDT (10/9) 2:53 AM CDT (10/9)
Length of Visible Light 12h 21m
Length of Day
11h 29m
Waxing Gibbous, 85% of the Moon is Illuminated
Oct 9
Waxing Gibbous
Oct 13
Full
Oct 21
Last Quarter
Oct 27
New
Nov 4
First Quarter

Hourly Weather History & Observations

Time (CDT) Temp. Dew Point Humidity Pressure Visibility Wind Dir Wind Speed Gust Speed Precip Events Conditions
12:15 AM 47.8 °F 47.5 °F 99% 30.10 in 10.0 mi Calm Calm - N/A   Clear
12:35 AM 47.5 °F 46.6 °F 97% 30.09 in 10.0 mi Calm Calm - N/A   Clear
1:15 AM 45.5 °F 44.8 °F 97% 30.09 in 10.0 mi Calm Calm - N/A   Clear
1:35 AM 46.4 °F 45.7 °F 97% 30.09 in 10.0 mi Calm Calm - N/A   Clear
1:55 AM 46.4 °F 45.9 °F 98% 30.09 in 10.0 mi Calm Calm - N/A   Clear
2:15 AM 45.7 °F 45.5 °F 99% 30.09 in 10.0 mi Calm Calm - N/A   Clear
2:35 AM 45.9 °F 45.7 °F 99% 30.09 in 10.0 mi Calm Calm - N/A   Clear
2:55 AM 46.0 °F 45.9 °F 99% 30.09 in 2.5 mi Calm Calm - N/A   Clear
3:15 AM 45.0 °F 44.8 °F 99% 30.09 in 10.0 mi Calm Calm - N/A   Clear
3:35 AM 45.9 °F 45.7 °F 99% 30.09 in 10.0 mi Calm Calm - N/A   Clear
3:55 AM 45.0 °F 44.8 °F 99% 30.09 in 10.0 mi Calm Calm - N/A   Clear
4:15 AM 45.1 °F 45.1 °F 100% 30.09 in 10.0 mi Calm Calm - N/A   Clear
4:35 AM 45.0 °F 45.0 °F 100% 30.09 in 7.0 mi Calm Calm - N/A   Clear
4:55 AM 44.6 °F 44.6 °F 100% 30.09 in 10.0 mi Calm Calm - N/A   Clear
5:15 AM 45.1 °F 45.1 °F 100% 30.10 in 10.0 mi Calm Calm - N/A   Clear
5:35 AM 45.5 °F 45.5 °F 100% 30.10 in 10.0 mi Calm Calm - N/A   Clear
5:55 AM 43.9 °F 43.9 °F 100% 30.10 in 10.0 mi Calm Calm - N/A   Clear
6:15 AM 43.5 °F 43.5 °F 100% 30.10 in 10.0 mi Calm Calm - N/A   Clear
6:35 AM 44.1 °F 44.1 °F 100% 30.10 in 10.0 mi Calm Calm - N/A   Clear
6:55 AM 43.5 °F 43.5 °F 100% 30.10 in 10.0 mi Calm Calm - N/A   Clear
7:15 AM 43.5 °F 43.5 °F 100% 30.11 in 10.0 mi Calm Calm - N/A   Clear
7:35 AM 45.5 °F 45.5 °F 100% 30.11 in 10.0 mi Calm Calm - N/A   Clear
7:55 AM 48.2 °F 48.2 °F 100% 30.11 in 10.0 mi Calm Calm - N/A   Clear
8:15 AM 50.5 °F 50.0 °F 98% 30.11 in 10.0 mi Calm Calm - N/A   Clear
8:35 AM 54.3 °F 52.9 °F 95% 30.11 in 10.0 mi Calm Calm - N/A   Clear
8:55 AM 57.4 °F 51.6 °F 81% 30.11 in 10.0 mi East 3.5 mph - N/A   Clear
9:15 AM 59.2 °F 52.5 °F 79% 30.12 in 10.0 mi ENE 4.6 mph - N/A   Clear
9:35 AM 61.2 °F 52.9 °F 74% 30.12 in 10.0 mi East 3.5 mph - N/A   Clear
9:55 AM 62.8 °F 53.4 °F 71% 30.13 in 10.0 mi East 3.5 mph - N/A   Clear
10:15 AM 64.4 °F 53.8 °F 68% 30.13 in 10.0 mi Calm Calm - N/A   Clear
10:35 AM 66.7 °F 54.7 °F 65% 30.13 in 10.0 mi Calm Calm - N/A   Clear
10:55 AM 68.9 °F 55.6 °F 62% 30.13 in 10.0 mi East 3.5 mph - N/A   Clear
11:15 AM 70.5 °F 56.1 °F 60% 30.12 in 10.0 mi East 5.8 mph - N/A   Clear
11:35 AM 71.1 °F 56.5 °F 60% 30.11 in 7.0 mi East 4.6 mph - N/A   Clear
11:55 AM 72.5 °F 57.0 °F 58% 30.11 in 4.0 mi Calm Calm - N/A   Haze
12:15 PM 73.8 °F 56.8 °F 55% 30.10 in 5.0 mi ESE 3.5 mph - N/A   Haze
12:35 PM 74.3 °F 56.5 °F 54% 30.09 in 10.0 mi NE 3.5 mph - N/A   Clear
12:55 PM 75.2 °F 57.2 °F 53% 30.07 in 10.0 mi ESE 5.8 mph - N/A   Clear
1:15 PM 75.2 °F 56.5 °F 52% 30.06 in 10.0 mi SE 4.6 mph - N/A   Clear
1:35 PM 76.8 °F 56.5 °F 49% 30.05 in 10.0 mi ENE 4.6 mph - N/A   Clear
1:55 PM 77.9 °F 56.5 °F 48% 30.04 in 10.0 mi East 5.8 mph - N/A   Clear
2:15 PM 77.5 °F 55.8 °F 47% 30.02 in 10.0 mi ENE 4.6 mph - N/A   Clear
2:35 PM 79.0 °F 55.0 °F 44% 30.02 in 10.0 mi SE 11.5 mph - N/A   Clear
2:55 PM 79.2 °F 54.7 °F 43% 30.01 in 10.0 mi ESE 10.4 mph - N/A   Clear
3:15 PM 78.6 °F 55.2 °F 44% 30.00 in 10.0 mi ESE 8.1 mph - N/A   Clear
3:35 PM 79.5 °F 55.2 °F 43% 30.00 in 10.0 mi ESE 8.1 mph - N/A   Clear
3:55 PM 79.5 °F 54.9 °F 42% 30.00 in 10.0 mi ESE 5.8 mph - N/A   Clear
4:15 PM 79.3 °F 55.2 °F 43% 29.99 in 10.0 mi ESE 9.2 mph - N/A   Clear
4:35 PM 79.9 °F 55.8 °F 43% 29.99 in 10.0 mi East 8.1 mph - N/A   Clear
4:55 PM 79.3 °F 55.6 °F 44% 29.99 in 10.0 mi East 5.8 mph - N/A   Clear
5:15 PM 78.6 °F 55.8 °F 45% 29.99 in 10.0 mi East 6.9 mph - N/A   Clear
5:35 PM 75.7 °F 55.6 °F 49% 30.00 in 10.0 mi East 5.8 mph - N/A   Clear
5:55 PM 73.4 °F 56.7 °F 56% 30.00 in 10.0 mi East 3.5 mph - N/A   Clear
6:35 PM 70.7 °F 56.7 °F 61% 30.00 in 10.0 mi East 5.8 mph - N/A   Scattered Clouds
6:55 PM 69.8 °F 56.5 °F 63% 30.00 in 10.0 mi East 3.5 mph - N/A   Scattered Clouds
7:15 PM 68.7 °F 56.8 °F 66% 30.01 in 10.0 mi Calm Calm - N/A   Scattered Clouds
7:35 PM 66.2 °F 56.8 °F 72% 30.01 in 10.0 mi East 3.5 mph - N/A   Scattered Clouds
7:55 PM 64.0 °F 57.4 °F 79% 30.02 in 10.0 mi Calm Calm - N/A   Clear
8:15 PM 64.0 °F 56.7 °F 77% 30.01 in 10.0 mi East 4.6 mph - N/A   Clear
8:35 PM 62.6 °F 57.0 °F 82% 30.02 in 10.0 mi Calm Calm - N/A   Clear
8:55 PM 63.9 °F 57.2 °F 79% 30.02 in 10.0 mi Calm Calm - N/A   Clear
9:15 PM 63.5 °F 57.2 °F 80% 30.01 in 10.0 mi ESE 3.5 mph - N/A   Clear
9:35 PM 65.3 °F 58.1 °F 77% 30.02 in 10.0 mi SE 4.6 mph - N/A   Clear
9:55 PM 65.3 °F 58.1 °F 77% 30.02 in 10.0 mi ESE 3.5 mph - N/A   Mostly Cloudy
10:15 PM 63.7 °F 58.3 °F 83% 30.02 in 10.0 mi ESE 5.8 mph - N/A   Scattered Clouds
10:35 PM 63.9 °F 58.1 °F 81% 30.03 in 10.0 mi SE 3.5 mph - N/A   Clear
10:55 PM 65.1 °F 58.1 °F 78% 30.03 in 10.0 mi Calm Calm - N/A   Mostly Cloudy
11:15 PM 64.6 °F 58.3 °F 80% 30.03 in 10.0 mi Calm Calm - N/A   Scattered Clouds
11:35 PM 60.8 °F 58.3 °F 91% 30.03 in 10.0 mi Calm Calm - N/A   Clear
11:55 PM 59.5 °F 56.8 °F 91% 30.02 in 10.0 mi Calm Calm - N/A   Clear